Regional Weather Roundup
Issued by NWS

Home | Current Version | Previous Version | Graphics & Text | Print | Product List | Glossary On
Versions: 1 2 3 4 5 6 7 8 9 10 11 12 13 14 15 16 17 18 19 20 21 22 23 24 25 26 27 28 29 30 31 32 33 34 35 36 37 38 39 40 41 42 43 44 45 46 47 48 49 50
000
ASUS44 KMEG 172000
RWRTN
TENNESSEE HOURLY STATE WEATHER ROUNDUP
NATIONAL WEATHER SERVICE MEMPHIS TN
200 PM CST WED JAN 17 2018

TNZ002-004-019-021-049-052-054-088>092-172100-
WEST TENNESSEE

CITY           SKY/WX    TMP DP  RH WIND       PRES   REMARKS
MEMPHIS INTL   FAIR      20  10  65 NW6       30.69F WCI  12
NWS MEMPHIS      N/A     21 N/A N/A MISG        N/A
JACKSON        FAIR      16   7  67 NW5       30.68F WCI   9
DYERSBURG      FAIR      18   8  65 W8        30.71F WCI   8
HUNTINGDON     SUNNY     18   7  62 CALM      30.66F
SELMER         SUNNY     19   9  63 CALM      30.63F
$$

TNZ008-025-027-028-033-062-065-066-172100-
NORTH MIDDLE TENNESSEE

CITY           SKY/WX    TMP DP  RH WIND       PRES   REMARKS
NASHVILLE      FAIR      21   9  59 NW6       30.62F WCI  13
CLARKSVILLE    FAIR      16   5  62 N8        30.64F WCI   5
SMYRNA         PTSUNNY   18   9  68 NW8       30.63F WCI   8
CROSSVILLE     FAIR      13   4  67 N10G21    30.44S WCI   0
$$

TNZ061-075-076-078-094-096-097-172100-
SOUTH MIDDLE TENNESSEE

CITY           SKY/WX    TMP DP  RH WIND       PRES   REMARKS
FAYETTEVILLE   SUNNY     19  10  68 N13       30.54F WCI   7
$$

TNZ017-018-042-046-047-172100-
NORTHEAST TENNESSEE

CITY           SKY/WX    TMP DP  RH WIND       PRES   REMARKS
TRI CITIES     FAIR      21   6  52 N9        30.38S WCI  11
$$

TNZ012-013-036-069-073-074-172100-
CENTRAL EAST TENNESSEE

CITY           SKY/WX    TMP DP  RH WIND       PRES   REMARKS
KNOXVILLE      FAIR      19   7  59 NW8       30.47F WCI   9
OAK RIDGE      FAIR      22   8  55 VRB5      30.49F WCI  16
$$

TNZ083-085-099-172100-
SOUTHEAST TENNESSEE

CITY           SKY/WX    TMP DP  RH WIND       PRES   REMARKS
CHATTANOOGA    FAIR      26   7  44 N15       30.50S WCI  14
$$

SKY/WX REPORTED AS FAIR MEANS FEW OR NO CLOUDS BELOW
12 THOUSAND FEET.




USA.gov is the U.S. government's official web portal to all federal, state and local government web resources and services.